| time (UTC) | temp F | wind direction | speed MPH | gust MPH | rain 1hr in | rain 24hr in | rain mn in | humidity % | barometer mb |
| 20260905232019 | 65 | 0.0 | 0.0 | 0.01 | 0.01 | 0.01 | 87 | 1013.1 | |
| 20260905231019 | 65 | 0.0 | 0.0 | 0.01 | 0.01 | 0.01 | 87 | 1013.1 | |
| 20260905230019 | 65 | 0.0 | 0.0 | 0.01 | 0.01 | 0.01 | 86 | 1013.0 | |
| 20260905225039 | 65 | 0.0 | 0.0 | 0.01 | 0.01 | 0.01 | 86 | 1012.9 | |
| 20260905224019 | 65 | 0.0 | 0.0 | 0.00 | 0.00 | 0.00 | 86 | 1013.0 | |
| 20260905223019 | 66 | 68 | 2.0 | 4.0 | 0.00 | 0.00 | 0.00 | 85 | 1012.8 |
| 20260905222018 | 66 | 68 | 2.0 | 8.0 | 0.00 | 0.00 | 0.00 | 83 | 1012.7 |
| 20260905221019 | 66 | 90 | 3.0 | 7.0 | 0.00 | 0.00 | 0.00 | 82 | 1012.7 |
| 20260905220019 | 67 | 90 | 4.0 | 9.0 | 0.00 | 0.00 | 0.00 | 81 | 1012.6 |
| 20260905215019 | 67 | 68 | 5.0 | 10.0 | 0.00 | 0.00 | 0.00 | 80 | 1012.5 |
| 20260905214039 | 68 | 68 | 5.0 | 9.0 | 0.00 | 0.00 | 0.00 | 78 | 1012.2 |
| 20260905213020 | 68 | 90 | 3.0 | 7.0 | 0.00 | 0.00 | 0.00 | 78 | 1012.0 |
| 20260905212039 | 69 | 68 | 3.0 | 8.0 | 0.00 | 0.00 | 0.00 | 78 | 1011.9 |
| 20260905211038 | 70 | 180 | 1.0 | 3.0 | 0.00 | 0.00 | 0.00 | 78 | 1011.9 |
| 20260905210018 | 70 | 0.0 | 0.0 | 0.00 | 0.00 | 0.00 | 78 | 1011.9 | |
| 20260905205018 | 70 | 0.0 | 2.0 | 0.00 | 0.00 | 0.00 | 78 | 1011.8 | |
| 20260905204018 | 70 | 0.0 | 1.0 | 0.00 | 0.00 | 0.00 | 78 | 1011.8 | |
| 20260905203039 | 70 | 68 | 1.0 | 2.0 | 0.00 | 0.00 | 0.00 | 77 | 1011.7 |
| 20260905202019 | 71 | 68 | 1.0 | 4.0 | 0.00 | 0.00 | 0.00 | 77 | 1011.7 |
| 20260905201038 | 70 | 0.0 | 2.0 | 0.00 | 0.00 | 0.00 | 78 | 1011.5 | |
| 20260905200018 | 70 | 68 | 1.0 | 6.0 | 0.00 | 0.00 | 0.00 | 79 | 1011.5 |
| 20260905195019 | 69 | 68 | 1.0 | 3.0 | 0.00 | 0.00 | 0.00 | 78 | 1011.5 |
| 20260905194018 | 69 | 68 | 2.0 | 5.0 | 0.00 | 0.00 | 0.00 | 79 | 1011.6 |
| 20260905193018 | 69 | 90 | 3.0 | 7.0 | 0.00 | 0.00 | 0.00 | 78 | 1011.5 |
| 20260905192020 | 70 | 90 | 2.0 | 4.0 | 0.00 | 0.00 | 0.00 | 76 | 1011.5 |
| 20260905191018 | 70 | 68 | 3.0 | 6.0 | 0.00 | 0.00 | 0.00 | 74 | 1011.4 |
| 20260905190018 | 71 | 68 | 1.0 | 4.0 | 0.00 | 0.00 | 0.00 | 73 | 1011.3 |
| 20260905185018 | 71 | 90 | 1.0 | 2.0 | 0.00 | 0.00 | 0.00 | 72 | 1011.4 |
| 20260905184018 | 72 | 90 | 2.0 | 4.0 | 0.00 | 0.00 | 0.00 | 71 | 1011.5 |
| 20260905183018 | 72 | 113 | 1.0 | 3.0 | 0.00 | 0.00 | 0.00 | 71 | 1011.3 |
| 20260905182019 | 72 | 68 | 3.0 | 6.0 | 0.00 | 0.00 | 0.00 | 71 | 1011.5 |
| 20260905181018 | 73 | 113 | 2.0 | 4.0 | 0.00 | 0.00 | 0.00 | 71 | 1011.5 |
| 20260905180039 | 72 | 68 | 2.0 | 4.0 | 0.00 | 0.00 | 0.00 | 72 | 1011.4 |
| 20260905175018 | 73 | 90 | 2.0 | 4.0 | 0.00 | 0.00 | 0.00 | 72 | 1011.4 |
| 20260905174019 | 73 | 90 | 2.0 | 7.0 | 0.00 | 0.00 | 0.00 | 71 | 1011.3 |
| 20260905173018 | 71 | 68 | 2.0 | 5.0 | 0.00 | 0.00 | 0.00 | 74 | 1011.4 |
| 20260905172018 | 71 | 113 | 2.0 | 7.0 | 0.00 | 0.00 | 0.00 | 73 | 1011.3 |
| 20260905171018 | 71 | 68 | 2.0 | 8.0 | 0.00 | 0.00 | 0.00 | 74 | 1011.3 |
| 20260905170018 | 71 | 68 | 3.0 | 11.0 | 0.00 | 0.00 | 0.00 | 73 | 1011.3 |
| 20260905165018 | 72 | 90 | 2.0 | 4.0 | 0.00 | 0.00 | 0.00 | 72 | 1011.2 |
| 20260905164018 | 72 | 113 | 2.0 | 6.0 | 0.00 | 0.00 | 0.00 | 72 | 1011.2 |
| 20260905163038 | 72 | 113 | 2.0 | 4.0 | 0.00 | 0.00 | 0.00 | 73 | 1011.2 |
| 20260905162018 | 72 | 113 | 1.0 | 4.0 | 0.00 | 0.00 | 0.00 | 72 | 1011.2 |
| 20260905161018 | 72 | 90 | 4.0 | 10.0 | 0.00 | 0.00 | 0.00 | 71 | 1011.3 |
| 20260905160018 | 74 | 248 | 2.0 | 6.0 | 0.00 | 0.00 | 0.00 | 70 | 1011.3 |
| 20260905155018 | 71 | 90 | 2.0 | 4.0 | 0.00 | 0.00 | 0.00 | 75 | 1011.3 |
| 20260905154018 | 71 | 293 | 1.0 | 4.0 | 0.00 | 0.00 | 0.00 | 74 | 1011.3 |
| 20260905153018 | 71 | 113 | 2.0 | 6.0 | 0.00 | 0.00 | 0.00 | 74 | 1011.4 |
| 20260905152018 | 71 | 113 | 3.0 | 7.0 | 0.00 | 0.00 | 0.00 | 74 | 1011.4 |
| 20260905151018 | 71 | 90 | 2.0 | 7.0 | 0.00 | 0.00 | 0.00 | 75 | 1011.3 |
| 20260905150018 | 71 | 225 | 2.0 | 5.0 | 0.00 | 0.00 | 0.00 | 76 | 1011.3 |
| 20260905145018 | 71 | 338 | 2.0 | 5.0 | 0.00 | 0.00 | 0.00 | 75 | 1011.3 |
| 20260905144018 | 70 | 113 | 3.0 | 8.0 | 0.00 | 0.00 | 0.00 | 77 | 1011.2 |
| 20260905143018 | 70 | 0.0 | 4.0 | 0.00 | 0.00 | 0.00 | 77 | 1011.2 | |
| 20260905142018 | 70 | 248 | 1.0 | 4.0 | 0.00 | 0.00 | 0.00 | 77 | 1011.2 |
| 20260905141018 | 70 | 68 | 1.0 | 2.0 | 0.00 | 0.00 | 0.00 | 78 | 1011.3 |
| 20260905140038 | 70 | 68 | 2.0 | 8.0 | 0.00 | 0.00 | 0.00 | 76 | 1011.4 |
| 20260905135018 | 70 | 248 | 2.0 | 8.0 | 0.00 | 0.00 | 0.00 | 76 | 1011.4 |
| 20260905134018 | 70 | 135 | 2.0 | 4.0 | 0.00 | 0.00 | 0.00 | 76 | 1011.4 |
| 20260905133017 | 70 | 90 | 1.0 | 4.0 | 0.00 | 0.00 | 0.00 | 77 | 1011.2 |
| 20260905132018 | 70 | 338 | 1.0 | 4.0 | 0.00 | 0.00 | 0.00 | 77 | 1011.2 |
| 20260905131018 | 70 | 90 | 1.0 | 5.0 | 0.00 | 0.00 | 0.00 | 76 | 1011.1 |
| 20260905130018 | 70 | 45 | 2.0 | 5.0 | 0.00 | 0.00 | 0.00 | 77 | 1011.0 |
| 20260905125018 | 69 | 315 | 1.0 | 3.0 | 0.00 | 0.00 | 0.00 | 78 | 1010.9 |
| 20260905124037 | 69 | 203 | 2.0 | 6.0 | 0.00 | 0.00 | 0.00 | 78 | 1010.9 |
| 20260905123018 | 68 | 45 | 1.0 | 3.0 | 0.00 | 0.00 | 0.00 | 81 | 1010.7 |
| 20260905122018 | 67 | 293 | 2.0 | 7.0 | 0.00 | 0.00 | 0.00 | 83 | 1010.7 |
| 20260905121017 | 66 | 0.0 | 3.0 | 0.00 | 0.00 | 0.00 | 85 | 1010.5 | |
| 20260905120017 | 65 | 0.0 | 4.0 | 0.00 | 0.01 | 0.00 | 87 | 1010.6 | |
| 20260905115017 | 63 | 0.0 | 2.0 | 0.00 | 0.01 | 0.00 | 88 | 1010.6 | |
| 20260905114017 | 62 | 293 | 1.0 | 3.0 | 0.00 | 0.01 | 0.00 | 89 | 1010.4 |
| 20260905113020 | 62 | 0.0 | 3.0 | 0.00 | 0.01 | 0.00 | 88 | 1010.3 | |
| 20260905112019 | 62 | 0.0 | 1.0 | 0.00 | 0.01 | 0.00 | 88 | 1010.2 | |
| 20260905111040 | 61 | 0.0 | 3.0 | 0.00 | 0.01 | 0.00 | 88 | 1010.4 | |
| 20260905110037 | 61 | 0.0 | 1.0 | 0.00 | 0.01 | 0.00 | 88 | 1010.2 | |
| 20260905105518 | 61 | 0.0 | 2.0 | 0.00 | 0.01 | 0.00 | 88 | 1010.1 | |
| 20260905104559 | 61 | 0.0 | 0.0 | 0.00 | 0.01 | 0.00 | 88 | 1010.0 | |
| 20260905103518 | 61 | 0.0 | 1.0 | 0.00 | 0.01 | 0.00 | 87 | 1010.1 | |
| 20260905102518 | 61 | 0.0 | 2.0 | 0.00 | 0.01 | 0.00 | 87 | 1010.0 | |
| 20260905101538 | 62 | 0.0 | 2.0 | 0.00 | 0.01 | 0.00 | 87 | 1010.1 | |
| 20260905100518 | 62 | 0.0 | 1.0 | 0.00 | 0.01 | 0.00 | 87 | 1010.1 | |
| 20260905095518 | 62 | 0.0 | 2.0 | 0.00 | 0.01 | 0.00 | 86 | 1010.1 | |
| 20260905094518 | 62 | 0.0 | 0.0 | 0.00 | 0.01 | 0.00 | 86 | 1010.1 | |
| 20260905093539 | 62 | 0.0 | 0.0 | 0.00 | 0.01 | 0.00 | 86 | 1010.0 | |
| 20260905092518 | 62 | 0.0 | 0.0 | 0.00 | 0.01 | 0.00 | 86 | 1010.0 | |
| 20260905091518 | 62 | 0.0 | 1.0 | 0.00 | 0.01 | 0.00 | 86 | 1009.8 | |
| 20260905090538 | 62 | 0.0 | 0.0 | 0.00 | 0.01 | 0.00 | 85 | 1009.8 | |
| 20260905085518 | 63 | 0.0 | 0.0 | 0.00 | 0.01 | 0.00 | 86 | 1009.8 | |
| 20260905084518 | 63 | 0.0 | 1.0 | 0.00 | 0.01 | 0.00 | 86 | 1009.7 | |
| 20260905083539 | 63 | 0.0 | 2.0 | 0.00 | 0.01 | 0.00 | 86 | 1009.8 | |
| 20260905082538 | 63 | 0.0 | 2.0 | 0.00 | 0.01 | 0.00 | 86 | 1009.8 | |
| 20260905081518 | 63 | 45 | 1.0 | 2.0 | 0.00 | 0.01 | 0.00 | 86 | 1009.8 |
| 20260905080518 | 63 | 0.0 | 1.0 | 0.00 | 0.01 | 0.00 | 86 | 1009.8 | |
| 20260905075518 | 63 | 0.0 | 3.0 | 0.00 | 0.01 | 0.00 | 86 | 1009.9 | |
| 20260905074518 | 63 | 0.0 | 2.0 | 0.00 | 0.01 | 0.00 | 86 | 1009.9 | |
| 20260905073518 | 63 | 0.0 | 2.0 | 0.00 | 0.01 | 0.00 | 85 | 1010.0 | |
| 20260905072518 | 63 | 0.0 | 1.0 | 0.00 | 0.01 | 0.00 | 85 | 1010.1 | |
| 20260905071538 | 63 | 0.0 | 1.0 | 0.00 | 0.01 | 0.00 | 85 | 1010.2 | |
| 20260905070518 | 63 | 0.0 | 0.0 | 0.00 | 0.01 | 0.00 | 84 | 1010.3 | |
| 20260905065518 | 64 | 0.0 | 1.0 | 0.00 | 0.01 | 0.00 | 84 | 1010.2 | |
| 20260905064518 | 64 | 0.0 | 0.0 | 0.00 | 0.01 | 0.00 | 84 | 1010.3 | |
| 20260905063518 | 64 | 0.0 | 3.0 | 0.00 | 0.01 | 0.00 | 84 | 1010.4 | |
| 20260905062518 | 64 | 0.0 | 0.0 | 0.00 | 0.01 | 0.00 | 83 | 1010.4 | |
| 20260905061538 | 64 | 0.0 | 0.0 | 0.00 | 0.01 | 0.00 | 83 | 1010.6 | |
| 20260905060518 | 64 | 0.0 | 2.0 | 0.00 | 0.01 | 0.00 | 83 | 1010.7 | |
| 20260905055518 | 64 | 0.0 | 0.0 | 0.00 | 0.01 | 0.00 | 83 | 1010.8 | |
| 20260905054518 | 64 | 0.0 | 1.0 | 0.00 | 0.01 | 0.00 | 82 | 1010.8 | |
| 20260905053517 | 64 | 0.0 | 1.0 | 0.00 | 0.01 | 0.00 | 82 | 1010.8 | |
| 20260905052518 | 64 | 0.0 | 1.0 | 0.00 | 0.01 | 0.00 | 82 | 1010.8 | |
| 20260905051518 | 65 | 0.0 | 1.0 | 0.00 | 0.01 | 0.00 | 82 | 1010.7 | |
| 20260905050518 | 65 | 0.0 | 3.0 | 0.00 | 0.01 | 0.00 | 82 | 1010.7 | |
| 20260905045517 | 65 | 0.0 | 1.0 | 0.00 | 0.01 | 0.00 | 82 | 1010.6 | |
| 20260905044518 | 65 | 0.0 | 0.0 | 0.00 | 0.01 | 0.00 | 82 | 1010.7 | |
| 20260905043518 | 65 | 0.0 | 0.0 | 0.00 | 0.01 | 0.00 | 81 | 1010.5 | |
| 20260905042518 | 65 | 0.0 | 0.0 | 0.00 | 0.01 | 0.00 | 81 | 1010.5 | |
| 20260905041517 | 65 | 0.0 | 0.0 | 0.00 | 0.01 | 0.00 | 80 | 1010.7 | |
| 20260905040517 | 65 | 0.0 | 0.0 | 0.00 | 0.01 | 0.00 | 80 | 1010.8 | |
| 20260905035519 | 66 | 0.0 | 0.0 | 0.00 | 0.01 | 0.01 | 79 | 1010.8 | |
| 20260905034519 | 66 | 0.0 | 0.0 | 0.00 | 0.01 | 0.01 | 78 | 1010.8 | |
| 20260905033518 | 66 | 0.0 | 0.0 | 0.00 | 0.01 | 0.01 | 77 | 1010.7 | |
| 20260905032518 | 67 | 0.0 | 0.0 | 0.00 | 0.01 | 0.01 | 77 | 1010.7 | |
| 20260905031518 | 67 | 0.0 | 0.0 | 0.00 | 0.01 | 0.01 | 76 | 1010.7 | |
| 20260905030518 | 67 | 0.0 | 0.0 | 0.00 | 0.01 | 0.01 | 75 | 1010.7 | |
| 20260905025518 | 68 | 0.0 | 1.0 | 0.00 | 0.01 | 0.01 | 74 | 1010.6 | |
| 20260905024518 | 68 | 0.0 | 0.0 | 0.00 | 0.01 | 0.01 | 73 | 1010.7 | |
| 20260905023518 | 69 | 0.0 | 0.0 | 0.00 | 0.01 | 0.01 | 73 | 1010.7 | |
| 20260905022518 | 69 | 0.0 | 0.0 | 0.00 | 0.01 | 0.01 | 72 | 1010.8 | |
| 20260905021518 | 69 | 0.0 | 3.0 | 0.00 | 0.01 | 0.01 | 72 | 1010.9 | |
| 20260905020518 | 70 | 0.0 | 1.0 | 0.00 | 0.01 | 0.01 | 71 | 1010.9 | |
| 20260905015518 | 70 | 0.0 | 0.0 | 0.00 | 0.01 | 0.01 | 70 | 1010.9 | |
| 20260905014538 | 70 | 0.0 | 2.0 | 0.00 | 0.01 | 0.01 | 70 | 1010.9 | |
| 20260905013518 | 71 | 0.0 | 2.0 | 0.00 | 0.01 | 0.01 | 69 | 1011.0 | |
| 20260905012518 | 71 | 0.0 | 0.0 | 0.00 | 0.01 | 0.01 | 69 | 1011.0 | |
| 20260905011518 | 71 | 0.0 | 0.0 | 0.00 | 0.01 | 0.01 | 68 | 1011.0 | |
| 20260905010518 | 72 | 0.0 | 0.0 | 0.00 | 0.01 | 0.01 | 67 | 1011.0 | |
| 20260905005518 | 72 | 0.0 | 1.0 | 0.00 | 0.01 | 0.01 | 67 | 1010.9 | |
| 20260905004518 | 73 | 0.0 | 0.0 | 0.00 | 0.01 | 0.01 | 66 | 1010.9 | |
| 20260905003518 | 73 | 0.0 | 0.0 | 0.00 | 0.01 | 0.01 | 65 | 1010.9 | |
| 20260905002518 | 73 | 315 | 1.0 | 3.0 | 0.00 | 0.01 | 0.01 | 65 | 1010.8 |
| 20260905001518 | 73 | 180 | 1.0 | 5.0 | 0.00 | 0.01 | 0.01 | 65 | 1010.7 |
| 20260905000517 | 73 | 90 | 1.0 | 4.0 | 0.00 | 0.01 | 0.01 | 66 | 1010.7 |
| 20260904235518 | 73 | 293 | 1.0 | 3.0 | 0.00 | 0.01 | 0.01 | 66 | 1010.5 |
| 20260904234518 | 73 | 90 | 1.0 | 3.0 | 0.00 | 0.01 | 0.01 | 67 | 1010.4 |
| 20260904233518 | 73 | 0.0 | 3.0 | 0.00 | 0.01 | 0.01 | 67 | 1010.4 |